This is the latest recevied weather packets stored in our database for station/object W0AVQ. If no packets are shown the sender has not sent any weather packets the latest 10 day(s).
| Time | Temp. | Humidity | Pressure | Rain* | Wind** | Luminosity | Snow |
|---|---|---|---|---|---|---|---|
| 1777993880 | 16.11° C | 99% | 1010 hPa | 0 mm | - | 74 W/m² | - |
| 1777993576 | 16.11° C | 99% | 1010 hPa | 0 mm | - | 35 W/m² | - |
| 1777993273 | 16.11° C | 99% | 1010.2 hPa | 0 mm | - | 57 W/m² | - |
| 1777992969 | 16.11° C | 99% | 1010 hPa | 0 mm | - | 55 W/m² | - |
| 1777992668 | 16.11° C | 99% | 1010.1 hPa | 0 mm | - | 32 W/m² | - |
| 1777992364 | 16.11° C | 99% | 1009.9 hPa | 0 mm | - | 34 W/m² | - |
| 1777984192 | 17.22° C | 86% | 1009.9 hPa | 7.87 mm | - | 0 W/m² | - |
| 1777983890 | 17.22° C | 86% | 1009.9 hPa | 7.87 mm | - | 0 W/m² | - |
| 1777983587 | 17.22° C | 85% | 1010 hPa | 3.05 mm | - | 0 W/m² | - |
| 1777983284 | 17.22° C | 82% | 1009.6 hPa | 0 mm | - | 0 W/m² | - |
| 1777982979 | 17.22° C | 81% | 1009.4 hPa | 0 mm | - | 1 W/m² | - |
| 1777982676 | 17.22° C | 81% | 1009.3 hPa | 0 mm | - | 1 W/m² | - |
| 1777982375 | 17.22° C | 80% | 1009.1 hPa | 0 mm | - | 1 W/m² | - |
| 1777982072 | 17.22° C | 81% | 1009 hPa | 0 mm | - | 0 W/m² | - |
| 1777981770 | 17.22° C | 80% | 1009 hPa | 0 mm | - | 1 W/m² | - |
| 1777981466 | 17.22° C | 80% | 1008.8 hPa | 0 mm | - | 2 W/m² | - |
| 1777981162 | 17.22° C | 80% | 1008.7 hPa | 0 mm | - | 2 W/m² | - |
| 1777980859 | 17.22° C | 80% | 1008.9 hPa | 0 mm | - | 5 W/m² | - |
| 1777980555 | 17.22° C | 80% | 1008.6 hPa | 0 mm | - | 4 W/m² | - |
| 1777980253 | 16.67° C | 80% | 1008.7 hPa | 0 mm | - | 2 W/m² | - |
| 1777979949 | 16.67° C | 79% | 1008.6 hPa | 0 mm | - | 2 W/m² | - |
| 1777979643 | 16.67° C | 79% | 1008.6 hPa | 0 mm | - | 0 W/m² | - |
| 1777979340 | 16.67° C | 79% | 1008.6 hPa | 0 mm | - | 0 W/m² | - |
| 1777979037 | 16.67° C | 79% | 1008.4 hPa | 0 mm | - | 0 W/m² | - |
| 1777978734 | 16.67° C | 79% | 1008.4 hPa | 0 mm | - | 0 W/m² | - |
* Rain latest hour (hover to see other rain measurements)
** Current wind speed in m/s (hover to see current wind gust speed)